Penn Yan, NY

8:48 PM EST on December 15, 2017 (GMT -0500)
Penn Yan

Weather History for KPEO - February, 2013

Change the Weather History Date:

Thursday, February 14, 2013

  Actual Average (KITH) Record (KITH)
Temperature  
Mean Temperature 34 °F -  
Max Temperature 42 °F 30 °F 56 °F (1938)
Min Temperature 26 °F 13 °F -14 °F (1958)
Degree Days  
Heating Degree Days 31    
Moisture  
Dew Point 26 °F    
Average Humidity 77    
Maximum Humidity 89    
Minimum Humidity 45    
Precipitation  
Precipitation 0.03 in - - ()
Sea Level Pressure  
Sea Level Pressure 29.86 in    
Wind  
Wind Speed 7 mph (SSW)    
Max Wind Speed 16 mph    
Max Gust Speed 20 mph    
Visibility 8 miles    
Events Rain    
Averages and records for this station are not official NWS values.
T = Trace of Precipitation, MM = Missing Value Source: NWS Daily Summary

Daily Weather History Graph

Daily Weather History Graph

Search for Another Location

Airport or City:

Trip Planner

Search our weather history database for the weather conditions in past years. The results will help you decide how hot, cold, wet, or windy it might be!

Date:

Astronomy

Feb. 14, 2013 Rise Set
Actual Time 7:06 AM EST 5:39 PM EST
Civil Twilight 6:37 AM EST 6:08 PM EST
Nautical Twilight 6:04 AM EST 6:41 PM EST
Astronomical Twilight 5:31 AM EST 7:13 PM EST
Moon 8:59 AM EST (2/14) 10:48 PM EST (2/14)
Length of Visible Light 11h 30m
Length of Day
10h 32m
Waxing Crescent, 21% of the Moon is Illuminated
Feb 14
Waxing Crescent
Feb 17
First Quarter
Feb 25
Full
Mar 4
Last Quarter
Mar 11
New

Hourly Weather History & Observations

Time (EST) Temp. Windchill Dew Point Humidity Pressure Visibility Wind Dir Wind Speed Gust Speed Precip Events Conditions
12:53 AM 28.0 °F 24.2 °F 23.0 °F 81% 29.81 in 8.0 mi WNW 3.5 mph - N/A   Clear
1:53 AM 27.0 °F 23.0 °F 21.9 °F 81% 29.83 in 9.0 mi SW 3.5 mph - N/A   Clear
2:12 AM 28.4 °F 23.3 °F 21.2 °F 74% 29.81 in 9.0 mi West 4.6 mph - N/A   Mostly Cloudy
2:53 AM 28.0 °F 21.7 °F 23.0 °F 81% 29.84 in 9.0 mi SW 5.8 mph - N/A   Overcast
3:33 AM 26.6 °F 21.2 °F 21.2 °F 80% 29.81 in 10.0 mi SW 4.6 mph - N/A   Partly Cloudy
3:53 AM 27.0 °F 20.5 °F 21.9 °F 81% 29.85 in 10.0 mi SW 5.8 mph - N/A   Clear
4:10 AM 26.6 °F 21.2 °F 21.2 °F 80% 29.83 in 9.0 mi SW 4.6 mph - N/A   Mostly Cloudy
4:53 AM 27.0 °F - 23.0 °F 85% 29.88 in 9.0 mi Calm Calm - N/A   Overcast
5:53 AM 28.0 °F 24.2 °F 23.0 °F 81% 29.88 in 9.0 mi SW 3.5 mph - N/A   Overcast
6:53 AM 28.9 °F 23.9 °F 21.0 °F 72% 29.91 in 9.0 mi SW 4.6 mph - N/A   Overcast
7:53 AM 28.9 °F 22.8 °F 21.9 °F 75% 29.93 in 10.0 mi SSW 5.8 mph - N/A   Overcast
8:53 AM 28.9 °F 20.4 °F 21.0 °F 72% 29.95 in 10.0 mi SSW 9.2 mph - N/A   Overcast
9:53 AM 28.9 °F 19.2 °F 21.0 °F 72% 29.95 in 10.0 mi South 11.5 mph - N/A   Overcast
10:02 AM 30.2 °F 21.9 °F 21.2 °F 69% 29.91 in 10.0 mi South 9.2 mph - N/A   Overcast
10:53 AM 32.0 °F 24.8 °F 21.9 °F 66% 29.93 in 10.0 mi South 8.1 mph - N/A   Mostly Cloudy
11:53 AM 35.1 °F 29.3 °F 23.0 °F 61% 29.91 in 10.0 mi SSW 6.9 mph - N/A   Clear
12:53 PM 37.9 °F 33.5 °F 21.0 °F 51% 29.88 in 10.0 mi South 5.8 mph - N/A   Clear
1:53 PM 41.0 °F 36.4 °F 21.0 °F 45% 29.86 in 10.0 mi SSW 6.9 mph - N/A   Clear
2:53 PM 42.1 °F 37.1 °F 23.0 °F 47% 29.84 in 10.0 mi SSE 8.1 mph - N/A   Mostly Cloudy
3:53 PM 37.9 °F 28.9 °F 30.0 °F 73% 29.86 in 8.0 mi South 16.1 mph - 0.00 in Rain Light Rain
4:33 PM 37.4 °F 29.3 °F 32.0 °F 81% 29.83 in 6.0 mi South 12.7 mph - 0.00 in Rain Light Rain
4:53 PM 37.0 °F 29.3 °F 32.0 °F 82% 29.87 in 4.0 mi SSE 11.5 mph - 0.00 in Rain Light Rain
5:06 PM 37.4 °F 30.8 °F 32.0 °F 81% 29.83 in 5.0 mi SSE 9.2 mph - 0.00 in Rain Light Rain
5:53 PM 36.0 °F 29.0 °F 32.0 °F 86% 29.87 in 6.0 mi South 9.2 mph - 0.01 in Rain Light Rain
6:12 PM 35.6 °F 28.0 °F 32.0 °F 87% 29.84 in 6.0 mi South 10.4 mph - 0.00 in Rain Light Rain
6:53 PM 36.0 °F 30.3 °F 32.0 °F 86% 29.87 in 7.0 mi South 6.9 mph - 0.00 in Rain Light Rain
7:53 PM 35.1 °F 27.4 °F 32.0 °F 89% 29.86 in 5.0 mi SSW 10.4 mph - 0.00 in Rain Light Rain
8:10 PM 35.6 °F 27.5 °F 32.0 °F 87% 29.83 in 5.0 mi South 11.5 mph - 0.00 in Rain Light Rain
8:53 PM 35.1 °F 26.4 °F 32.0 °F 89% 29.86 in 6.0 mi South 12.7 mph 18.4 mph 0.00 in Rain Light Rain
9:53 PM 36.0 °F 28.0 °F 32.0 °F 86% 29.86 in 6.0 mi SSW 11.5 mph 19.6 mph 0.01 in Rain Light Rain
10:00 PM 35.6 °F 28.0 °F 32.0 °F 87% 29.82 in 6.0 mi South 10.4 mph - 0.00 in Rain Light Rain
10:32 PM 35.6 °F 26.6 °F 32.0 °F 87% 29.81 in 7.0 mi SSW 13.8 mph - 0.01 in Rain Light Rain
10:53 PM 36.0 °F 28.0 °F 32.0 °F 86% 29.84 in 7.0 mi SSW 11.5 mph - 0.01 in   Mostly Cloudy
11:53 PM 36.0 °F 29.6 °F 32.0 °F 86% 29.82 in 8.0 mi SSW 8.1 mph - N/A   Mostly Cloudy